This is the latest recevied weather packets stored in our database for station/object W1LBM. If no packets are shown the sender has not sent any weather packets the latest 10 day(s).
| Time | Temp. | Humidity | Pressure | Rain* | Wind** | Luminosity | Snow |
|---|---|---|---|---|---|---|---|
| 1777738688 | 11.11° C | 81% | 1014.4 hPa | 0 mm | - | 62 W/m² | - |
| 1777738383 | 11.11° C | 76% | 1014.4 hPa | 0 mm | - | 62 W/m² | - |
| 1777738081 | 11.11° C | 79% | 1014.7 hPa | 0 mm | - | 47 W/m² | - |
| 1777737780 | 11.67° C | 77% | 1014.7 hPa | 0 mm | - | 68 W/m² | - |
| 1777737478 | 11.67° C | 77% | 1014.8 hPa | 0 mm | - | 43 W/m² | - |
| 1777737176 | 12.22° C | 77% | 1014.7 hPa | 0 mm | - | 58 W/m² | - |
| 1777736871 | 12.78° C | 75% | 1014.9 hPa | 0 mm | - | 52 W/m² | - |
| 1777736258 | 12.22° C | 76% | 1014.9 hPa | 0 mm | - | 255 W/m² | - |
| 1777735955 | 12.22° C | 74% | 1014.7 hPa | 0 mm | - | 127 W/m² | - |
| 1777735652 | 12.22° C | 75% | 1014.8 hPa | 0 mm | - | 112 W/m² | - |
| 1777735349 | 13.33° C | 75% | 1015 hPa | 0 mm | - | 163 W/m² | - |
| 1777735047 | 12.22° C | 76% | 1015.1 hPa | 0 mm | - | 539 W/m² | - |
| 1777734744 | 12.22° C | 77% | 1014.8 hPa | 0 mm | - | 248 W/m² | - |
| 1777734442 | 12.22° C | 76% | 1014.9 hPa | 0 mm | - | 98 W/m² | - |
| 1777734138 | 12.22° C | 79% | 1014.9 hPa | 0 mm | - | 231 W/m² | - |
| 1777733834 | 12.22° C | 76% | 1014.9 hPa | 0 mm | - | 535 W/m² | - |
| 1777733531 | 11.67° C | 77% | 1015.1 hPa | 0 mm | - | 222 W/m² | - |
| 1777733227 | 11.67° C | 77% | 1015.1 hPa | 0 mm | - | 112 W/m² | - |
| 1777732924 | 12.22° C | 76% | 1015.2 hPa | 0 mm | - | 146 W/m² | - |
| 1777732621 | 12.22° C | 75% | 1014.9 hPa | 0 mm | - | 149 W/m² | - |
| 1777732318 | 12.22° C | 75% | 1015.1 hPa | 0 mm | - | 164 W/m² | - |
| 1777732015 | 12.22° C | 74% | 1014.7 hPa | 0 mm | - | 172 W/m² | - |
| 1777731712 | 12.78° C | 75% | 1014.7 hPa | 0 mm | - | 237 W/m² | - |
| 1777731409 | 12.22° C | 74% | 1015 hPa | 0 mm | - | 314 W/m² | - |
| 1777731107 | 12.22° C | 74% | 1015.1 hPa | 0 mm | - | 292 W/m² | - |
* Rain latest hour (hover to see other rain measurements)
** Current wind speed in m/s (hover to see current wind gust speed)